Home > Weather > Amersfoort > Past weeks

Flag for Netherlands Weather for the Past 2 Weeks in Amersfoort, Netherlands

Now
41 °F

Broken clouds.


Feels Like: 34 °F
Forecast: 37 / 43 °F
Wind: 13 mph from Southwest

Location: Deelen

Current Time: Feb 10, 2016 at 12:24:02 PM

Latest Report: Feb 10, 2016 at 11:55 AM


Visibility: N/A

Pressure: 29.27 "Hg

Humidity: 93%

Dew point: 39 °F

Location of AmersfoortLocation

Historic Weather in Amersfoort — Graph

°F

Amersfoort Temperature Yesterday

Maximum temperature yesterday: 46 °F (at 12:55 AM)
Minimum temperature yesterday: 36 °F (at 5:55 PM)
Average temperature yesterday: 41 °F

High & Low Weather Summary for the Past Weeks

 TemperatureHumidityPressure
High54 °F (Jan 27, 2:55 PM)100% (Jan 26, 10:25 AM)30.27 "Hg (Jan 26, 10:25 AM)
Low32 °F (Feb 10, 5:25 AM)62% (Jan 28, 2:25 PM)28.88 "Hg (Feb 9, 3:25 PM)
Average45 °F86%29.79 "Hg
* Reported Jan 26 10:25 AM — Feb 10 10:55 AM, Amersfoort, Weather by CustomWeather, © 2016

Note: Actual official high and low records may vary slightly from our data, if they occured in-between our weather recording intervals... More about our weather records

Advertising

Amersfoort Weather History for the Previous 24 Hours

 ConditionsComfort  
Time TempWeatherWind HumidityBarometerVisibility
10:55 AM
Wed, Feb 10
41 °FBroken clouds.14 mph87%29.24 "HgN/A
10:25 AM39 °FDrizzle. Partly sunny.10 mph93%29.24 "Hg4 mi
9:55 AM39 °FFog.10 mph93%29.24 "Hg5 mi
9:25 AM37 °FFog.13 mph93%29.21 "Hg5 mi
8:55 AM37 °FFog.10 mph93%29.21 "Hg4 mi
8:25 AM36 °FFog.9 mph100%29.21 "Hg3 mi
7:55 AM36 °FFog.8 mph93%29.21 "Hg3 mi
7:25 AM34 °FFog.8 mph100%29.21 "Hg4 mi
6:55 AM34 °FFog.8 mph93%29.18 "Hg4 mi
6:25 AM32 °FLight snow. Partly cloudy.9 mph100%29.18 "Hg4 mi
5:55 AM34 °FLight rain. Partly cloudy.9 mph93%29.18 "Hg2 mi
5:25 AM32 °FLight snow. Partly cloudy.10 mph100%29.18 "Hg2 mi
4:55 AM34 °FLight rain. Passing clouds.14 mph93%29.18 "Hg2 mi
4:25 AM36 °FLight rain. Partly cloudy.14 mph93%29.18 "Hg3 mi
3:55 AM37 °FLight rain. Passing clouds.13 mph87%29.18 "Hg4 mi
3:25 AM36 °FLight rain. Mostly cloudy.13 mph93%29.18 "HgN/A
2:55 AM36 °FPassing clouds.13 mph93%29.18 "HgN/A
2:25 AM37 °FPassing clouds.13 mph87%29.18 "HgN/A
1:25 AM37 °FPassing clouds.14 mph81%29.18 "HgN/A
12:55 AM37 °FPassing clouds.15 mph87%29.18 "HgN/A
12:25 AM37 °FPassing clouds.14 mph87%29.18 "HgN/A
11:55 PM
Tue, Feb 9
37 °FPassing clouds.12 mph87%29.15 "HgN/A
11:25 PM37 °FPassing clouds.9 mph87%29.15 "HgN/A
10:25 PM37 °FPassing clouds.8 mph93%29.12 "HgN/A
9:55 PM37 °FPartly cloudy.9 mph93%29.12 "HgN/A
9:25 PM37 °FPartly cloudy.9 mph93%29.09 "HgN/A
8:55 PM37 °FPartly cloudy.9 mph93%29.06 "HgN/A
8:25 PM39 °FPartly cloudy.9 mph93%29.06 "HgN/A
7:55 PM39 °FPartly cloudy.9 mph93%29.03 "HgN/A
7:25 PM39 °FDrizzle. Overcast.13 mph93%29.00 "HgN/A
6:55 PM37 °FLight rain. Passing clouds.13 mph93%28.97 "HgN/A
6:25 PM37 °FLight rain. Passing clouds.13 mph93%28.97 "Hg5 mi
5:55 PM36 °FLight rain. Partly cloudy.14 mph93%28.94 "Hg4 mi
4:25 PM37 °FLight rain. Broken clouds.12 mph93%28.88 "HgN/A
3:55 PM37 °FLight rain. Broken clouds.9 mph93%28.88 "Hg4 mi
3:25 PM37 °FLight rain. Broken clouds.10 mph93%28.88 "HgN/A
2:55 PM37 °FLight rain. Broken clouds.7 mph93%28.91 "Hg4 mi
2:25 PM39 °FSprinkles. Broken clouds.7 mph93%28.94 "HgN/A
1:55 PM39 °FSprinkles. Broken clouds.13 mph87%29.00 "HgN/A
1:25 PM41 °FLight rain. Broken clouds.10 mph87%29.03 "HgN/A
12:55 PM43 °FSprinkles. Partly sunny.10 mph87%29.06 "HgN/A
12:25 PM43 °FLight rain. Mostly cloudy.7 mph81%29.09 "HgN/A
Weather by CustomWeather, © 2016

See weather overviewHow to use our weather pages